owner,sensor,date,latitude,longitude,vertical_datum,mass_concentration_of_oxygen_in_sea_water,qcFlag 
SCCF RECON,ioos:station:SCCF:53:1,2009-06-01T00:00:00Z,26.6493,-81.8810,2.11,4.96,1111122 
SCCF RECON,ioos:station:SCCF:53:1,2009-06-01T01:00:00Z,26.6493,-81.8810,2.15,5.61,1111122 
SCCF RECON,ioos:station:SCCF:53:1,2009-06-01T02:00:00Z,26.6493,-81.8810,2.199,5.1,1111122 
SCCF RECON,ioos:station:SCCF:53:1,2009-06-01T03:00:00Z,26.6493,-81.8810,2.221,5.42,1111122 
SCCF RECON,ioos:station:SCCF:53:1,2009-06-01T04:00:00Z,26.6493,-81.8810,2.21,5.26,1111122 
SCCF RECON,ioos:station:SCCF:53:1,2009-06-01T05:00:00Z,26.6493,-81.8810,2.17,5.17,1111122 
SCCF RECON,ioos:station:SCCF:53:1,2009-06-01T06:00:00Z,26.6493,-81.8810,2.12,4.76,1111122 
SCCF RECON,ioos:station:SCCF:53:1,2009-06-01T07:00:00Z,26.6493,-81.8810,2.08,4.91,1111122 
SCCF RECON,ioos:station:SCCF:53:1,2009-06-01T08:00:00Z,26.6493,-81.8810,2.04,4.78,1111122 
SCCF RECON,ioos:station:SCCF:53:1,2009-06-01T09:00:00Z,26.6493,-81.8810,2.01,4.7,1111122 
SCCF RECON,ioos:station:SCCF:53:1,2009-06-01T10:00:00Z,26.6493,-81.8810,2.01,4.76,1111122 
SCCF RECON,ioos:station:SCCF:53:1,2009-06-01T11:00:00Z,26.6493,-81.8810,2.06,4.83,1111122 
SCCF RECON,ioos:station:SCCF:53:1,2009-06-01T12:00:00Z,26.6493,-81.8810,2.119,5.32,1111122 
SCCF RECON,ioos:station:SCCF:53:1,2009-06-01T13:00:00Z,26.6493,-81.8810,2.16,5.34,1111122 
SCCF RECON,ioos:station:SCCF:53:1,2009-06-01T14:00:00Z,26.6493,-81.8810,2.224,4.6,1111122 
SCCF RECON,ioos:station:SCCF:53:1,2009-06-01T15:00:00Z,26.6493,-81.8810,2.269,4.39,1111122 
SCCF RECON,ioos:station:SCCF:53:1,2009-06-01T16:00:00Z,26.6493,-81.8810,2.28,4.4,1111122 
SCCF RECON,ioos:station:SCCF:53:1,2009-06-01T17:00:00Z,26.6493,-81.8810,2.26,4.7,1111122 
SCCF RECON,ioos:station:SCCF:53:1,2009-06-01T18:00:00Z,26.6493,-81.8810,2.202,5.44,1111122 
SCCF RECON,ioos:station:SCCF:53:1,2009-06-01T20:00:00Z,26.6493,-81.8810,2.111,5.39,1111122 
SCCF RECON,ioos:station:SCCF:53:1,2009-06-01T21:00:00Z,26.6493,-81.8810,2.07,5.67,1111122 
SCCF RECON,ioos:station:SCCF:53:1,2009-06-01T22:00:00Z,26.6493,-81.8810,2.037,5.35,1111122 
SCCF RECON,ioos:station:SCCF:53:1,2009-06-01T23:00:00Z,26.6493,-81.8810,2.025,4.87,1111122 
SCCF RECON,ioos:station:SCCF:53:1,2009-06-02T00:00:00Z,26.6493,-81.8810,2.07,4.61,1111122 
SCCF RECON,ioos:station:SCCF:53:1,2009-06-02T01:00:00Z,26.6493,-81.8810,2.108,5.02,1111122 
SCCF RECON,ioos:station:SCCF:53:1,2009-06-02T02:00:00Z,26.6493,-81.8810,2.121,4.44,1111122 
SCCF RECON,ioos:station:SCCF:53:1,2009-06-02T03:00:00Z,26.6493,-81.8810,2.17,4.89,1111122 
SCCF RECON,ioos:station:SCCF:53:1,2009-06-02T04:00:00Z,26.6493,-81.8810,2.2,4.41,1111122 
SCCF RECON,ioos:station:SCCF:53:1,2009-06-02T05:00:00Z,26.6493,-81.8810,2.19,4.23,1111122 
SCCF RECON,ioos:station:SCCF:53:1,2009-06-02T06:00:00Z,26.6493,-81.8810,2.17,4.35,1111122 
SCCF RECON,ioos:station:SCCF:53:1,2009-06-02T07:00:00Z,26.6493,-81.8810,2.14,4.35,1111122 
SCCF RECON,ioos:station:SCCF:53:1,2009-06-02T08:00:00Z,26.6493,-81.8810,2.09,3.42,1111122 
SCCF RECON,ioos:station:SCCF:53:1,2009-06-02T09:00:00Z,26.6493,-81.8810,2.06,3.41,1111122 
SCCF RECON,ioos:station:SCCF:53:1,2009-06-02T10:00:00Z,26.6493,-81.8810,2.05,3.44,1111122 
SCCF RECON,ioos:station:SCCF:53:1,2009-06-02T11:00:00Z,26.6493,-81.8810,2.064,2.71,1111122 
SCCF RECON,ioos:station:SCCF:53:1,2009-06-02T12:00:00Z,26.6493,-81.8810,2.13,2.82,1111122 
SCCF RECON,ioos:station:SCCF:53:1,2009-06-02T13:00:00Z,26.6493,-81.8810,2.19,3.22,1111122 
SCCF RECON,ioos:station:SCCF:53:1,2009-06-02T14:00:00Z,26.6493,-81.8810,2.251,2.13,1111122 
SCCF RECON,ioos:station:SCCF:53:1,2009-06-02T15:00:00Z,26.6493,-81.8810,2.311,2.36,1111122 
SCCF RECON,ioos:station:SCCF:53:1,2009-06-02T16:00:00Z,26.6493,-81.8810,2.35,2.55,1111122 
SCCF RECON,ioos:station:SCCF:53:1,2009-06-02T17:00:00Z,26.6493,-81.8810,2.37,2.6,1111122 
SCCF RECON,ioos:station:SCCF:53:1,2009-06-02T18:00:00Z,26.6493,-81.8810,2.34,2.33,1111122 
SCCF RECON,ioos:station:SCCF:53:1,2009-06-02T19:00:00Z,26.6493,-81.8810,2.28,2.77,1111122 
SCCF RECON,ioos:station:SCCF:53:1,2009-06-02T20:00:00Z,26.6493,-81.8810,2.22,2.18,1111122 
SCCF RECON,ioos:station:SCCF:53:1,2009-06-02T21:00:00Z,26.6493,-81.8810,2.18,2.28,1111122 
SCCF RECON,ioos:station:SCCF:53:1,2009-06-02T22:00:00Z,26.6493,-81.8810,2.12,2.79,1111122 
SCCF RECON,ioos:station:SCCF:53:1,2009-06-02T23:00:00Z,26.6493,-81.8810,2.09,2.18,1111122 
SCCF RECON,ioos:station:SCCF:53:1,2009-06-03T00:00:00Z,26.6493,-81.8810,2.074,1.72,1111122 
SCCF RECON,ioos:station:SCCF:53:1,2009-06-03T01:00:00Z,26.6493,-81.8810,2.054,2.78,1111122 
SCCF RECON,ioos:station:SCCF:53:1,2009-06-03T02:00:00Z,26.6493,-81.8810,2.07,2.0,1111122 
SCCF RECON,ioos:station:SCCF:53:1,2009-06-03T03:00:00Z,26.6493,-81.8810,2.1,1.67,1111122 
SCCF RECON,ioos:station:SCCF:53:1,2009-06-03T04:00:00Z,26.6493,-81.8810,2.14,0.86,1111122 
SCCF RECON,ioos:station:SCCF:53:1,2009-06-03T05:00:00Z,26.6493,-81.8810,2.18,1.02,1111122 
SCCF RECON,ioos:station:SCCF:53:1,2009-06-03T06:00:00Z,26.6493,-81.8810,2.18,0.8,1111122 
SCCF RECON,ioos:station:SCCF:53:1,2009-06-03T07:00:00Z,26.6493,-81.8810,2.16,1.25,1111122 
SCCF RECON,ioos:station:SCCF:53:1,2009-06-03T08:00:00Z,26.6493,-81.8810,2.12,0.86,1111122 
SCCF RECON,ioos:station:SCCF:53:1,2009-06-03T09:00:00Z,26.6493,-81.8810,2.1,2.64,1111122 
SCCF RECON,ioos:station:SCCF:53:1,2009-06-03T10:00:00Z,26.6493,-81.8810,2.06,1.81,1111122 
SCCF RECON,ioos:station:SCCF:53:1,2009-06-03T11:00:00Z,26.6493,-81.8810,2.06,1.26,1111122 
SCCF RECON,ioos:station:SCCF:53:1,2009-06-03T12:00:00Z,26.6493,-81.8810,2.088,1.35,1111122 
SCCF RECON,ioos:station:SCCF:53:1,2009-06-03T13:00:00Z,26.6493,-81.8810,2.14,2.43,1111122 
SCCF RECON,ioos:station:SCCF:53:1,2009-06-03T14:00:00Z,26.6493,-81.8810,2.197,1.67,1111122 
SCCF RECON,ioos:station:SCCF:53:1,2009-06-03T15:00:00Z,26.6493,-81.8810,2.251,1.8,1111122 
SCCF RECON,ioos:station:SCCF:53:1,2009-06-03T16:00:00Z,26.6493,-81.8810,2.301,2.33,1111122 
SCCF RECON,ioos:station:SCCF:53:1,2009-06-03T17:00:00Z,26.6493,-81.8810,2.34,2.9,1111122 
SCCF RECON,ioos:station:SCCF:53:1,2009-06-03T18:00:00Z,26.6493,-81.8810,2.34,2.39,1111122 
SCCF RECON,ioos:station:SCCF:53:1,2009-06-03T19:00:00Z,26.6493,-81.8810,2.28,2.45,1111122 
SCCF RECON,ioos:station:SCCF:53:1,2009-06-03T20:00:00Z,26.6493,-81.8810,2.24,2.65,1111122 
SCCF RECON,ioos:station:SCCF:53:1,2009-06-03T21:00:00Z,26.6493,-81.8810,2.17,3.21,1111122 
SCCF RECON,ioos:station:SCCF:53:1,2009-06-03T22:00:00Z,26.6493,-81.8810,2.12,3.02,1111122 
SCCF RECON,ioos:station:SCCF:53:1,2009-06-03T23:00:00Z,26.6493,-81.8810,2.075,2.91,1111122 
SCCF RECON,ioos:station:SCCF:53:1,2009-06-04T00:00:00Z,26.6493,-81.8810,2.03,2.6,1111122 
SCCF RECON,ioos:station:SCCF:53:1,2009-06-04T01:00:00Z,26.6493,-81.8810,2.0,1.63,1111122 
SCCF RECON,ioos:station:SCCF:53:1,2009-06-04T02:00:00Z,26.6493,-81.8810,2.02,1.6,1111122 
SCCF RECON,ioos:station:SCCF:53:1,2009-06-04T03:00:00Z,26.6493,-81.8810,2.04,1.98,1111122 
SCCF RECON,ioos:station:SCCF:53:1,2009-06-04T04:00:00Z,26.6493,-81.8810,2.09,2.08,1111122 
SCCF RECON,ioos:station:SCCF:53:1,2009-06-04T05:00:00Z,26.6493,-81.8810,2.15,2.03,1111122 
SCCF RECON,ioos:station:SCCF:53:1,2009-06-04T06:00:00Z,26.6493,-81.8810,2.17,1.56,1111122 
SCCF RECON,ioos:station:SCCF:53:1,2009-06-04T07:00:00Z,26.6493,-81.8810,2.2,1.71,1111122 
SCCF RECON,ioos:station:SCCF:53:1,2009-06-04T08:00:00Z,26.6493,-81.8810,2.21,1.69,1111122 
SCCF RECON,ioos:station:SCCF:53:1,2009-06-04T09:00:00Z,26.6493,-81.8810,2.19,1.69,1111122 
SCCF RECON,ioos:station:SCCF:53:1,2009-06-04T10:00:00Z,26.6493,-81.8810,2.16,1.61,1111122 
SCCF RECON,ioos:station:SCCF:53:1,2009-06-04T11:00:00Z,26.6493,-81.8810,2.13,1.16,1111122 
SCCF RECON,ioos:station:SCCF:53:1,2009-06-04T12:00:00Z,26.6493,-81.8810,2.139,1.04,1111122 
SCCF RECON,ioos:station:SCCF:53:1,2009-06-04T13:00:00Z,26.6493,-81.8810,2.189,2.1,1111122 
SCCF RECON,ioos:station:SCCF:53:1,2009-06-04T14:00:00Z,26.6493,-81.8810,2.25,3.21,1111122 
SCCF RECON,ioos:station:SCCF:53:1,2009-06-04T15:00:00Z,26.6493,-81.8810,2.301,2.37,1111122 
SCCF RECON,ioos:station:SCCF:53:1,2009-06-04T16:00:00Z,26.6493,-81.8810,2.348,2.97,1111122 
SCCF RECON,ioos:station:SCCF:53:1,2009-06-04T17:00:00Z,26.6493,-81.8810,2.399,2.9,1111122 
SCCF RECON,ioos:station:SCCF:53:1,2009-06-04T18:00:00Z,26.6493,-81.8810,2.429,3.07,1111122 
SCCF RECON,ioos:station:SCCF:53:1,2009-06-04T19:00:00Z,26.6493,-81.8810,2.4,3.7,1111122 
SCCF RECON,ioos:station:SCCF:53:1,2009-06-04T20:00:00Z,26.6493,-81.8810,2.34,2.76,1111122 
SCCF RECON,ioos:station:SCCF:53:1,2009-06-04T21:00:00Z,26.6493,-81.8810,2.268,3.75,1111122 
SCCF RECON,ioos:station:SCCF:53:1,2009-06-04T22:00:00Z,26.6493,-81.8810,2.209,3.46,1111122 
SCCF RECON,ioos:station:SCCF:53:1,2009-06-04T23:00:00Z,26.6493,-81.8810,2.158,3.69,1111122 
SCCF RECON,ioos:station:SCCF:53:1,2009-06-05T00:00:00Z,26.6493,-81.8810,2.107,3.73,1111122 
SCCF RECON,ioos:station:SCCF:53:1,2009-06-05T01:00:00Z,26.6493,-81.8810,2.064,4.1,1111122 
SCCF RECON,ioos:station:SCCF:53:1,2009-06-05T02:00:00Z,26.6493,-81.8810,2.03,3.92,1111122 
SCCF RECON,ioos:station:SCCF:53:1,2009-06-05T03:00:00Z,26.6493,-81.8810,2.04,2.97,1111122 
SCCF RECON,ioos:station:SCCF:53:1,2009-06-05T04:00:00Z,26.6493,-81.8810,2.07,3.78,1111122 
SCCF RECON,ioos:station:SCCF:53:1,2009-06-05T05:00:00Z,26.6493,-81.8810,2.106,2.79,1111122 
SCCF RECON,ioos:station:SCCF:53:1,2009-06-05T06:00:00Z,26.6493,-81.8810,2.15,2.45,1111122 
SCCF RECON,ioos:station:SCCF:53:1,2009-06-05T07:00:00Z,26.6493,-81.8810,2.18,2.05,1111122 
SCCF RECON,ioos:station:SCCF:53:1,2009-06-05T08:00:00Z,26.6493,-81.8810,2.22,2.03,1111122 
SCCF RECON,ioos:station:SCCF:53:1,2009-06-05T09:00:00Z,26.6493,-81.8810,2.22,2.55,1111122 
SCCF RECON,ioos:station:SCCF:53:1,2009-06-05T10:00:00Z,26.6493,-81.8810,2.21,2.08,1111122 
SCCF RECON,ioos:station:SCCF:53:1,2009-06-05T11:00:00Z,26.6493,-81.8810,2.19,2.25,1111122 
SCCF RECON,ioos:station:SCCF:53:1,2009-06-05T12:00:00Z,26.6493,-81.8810,2.2,2.25,1111122 
SCCF RECON,ioos:station:SCCF:53:1,2009-06-05T13:00:00Z,26.6493,-81.8810,2.23,2.2,1111122 
SCCF RECON,ioos:station:SCCF:53:1,2009-06-05T14:00:00Z,26.6493,-81.8810,2.28,2.11,1111122 
SCCF RECON,ioos:station:SCCF:53:1,2009-06-05T15:00:00Z,26.6493,-81.8810,2.333,1.72,1111122 
SCCF RECON,ioos:station:SCCF:53:1,2009-06-05T16:00:00Z,26.6493,-81.8810,2.397,2.08,1111122 
SCCF RECON,ioos:station:SCCF:53:1,2009-06-05T17:00:00Z,26.6493,-81.8810,2.439,2.76,1111122 
SCCF RECON,ioos:station:SCCF:53:1,2009-06-05T18:00:00Z,26.6493,-81.8810,2.478,4.73,1111122 
SCCF RECON,ioos:station:SCCF:53:1,2009-06-05T19:00:00Z,26.6493,-81.8810,2.468,5.24,1111122 
SCCF RECON,ioos:station:SCCF:53:1,2009-06-05T20:00:00Z,26.6493,-81.8810,2.424,6.1,1111122 
SCCF RECON,ioos:station:SCCF:53:1,2009-06-05T21:00:00Z,26.6493,-81.8810,2.364,6.14,1111122 
SCCF RECON,ioos:station:SCCF:53:1,2009-06-05T22:00:00Z,26.6493,-81.8810,2.312,5.66,1111122 
SCCF RECON,ioos:station:SCCF:53:1,2009-06-05T23:00:00Z,26.6493,-81.8810,2.253,6.25,1111122 
SCCF RECON,ioos:station:SCCF:53:1,2009-06-06T00:00:00Z,26.6493,-81.8810,2.203,6.95,1111122 
SCCF RECON,ioos:station:SCCF:53:1,2009-06-06T01:00:00Z,26.6493,-81.8810,2.15,6.93,1111122 
SCCF RECON,ioos:station:SCCF:53:1,2009-06-06T02:00:00Z,26.6493,-81.8810,2.091,6.72,1111122 
SCCF RECON,ioos:station:SCCF:53:1,2009-06-06T03:00:00Z,26.6493,-81.8810,2.06,6.35,1111122 
SCCF RECON,ioos:station:SCCF:53:1,2009-06-06T04:00:00Z,26.6493,-81.8810,2.05,6.41,1111122 
SCCF RECON,ioos:station:SCCF:53:1,2009-06-06T05:00:00Z,26.6493,-81.8810,2.07,6.2,1111122 
SCCF RECON,ioos:station:SCCF:53:1,2009-06-06T06:00:00Z,26.6493,-81.8810,2.12,5.64,1111122 
SCCF RECON,ioos:station:SCCF:53:1,2009-06-06T07:00:00Z,26.6493,-81.8810,2.15,4.74,1111122 
SCCF RECON,ioos:station:SCCF:53:1,2009-06-06T08:00:00Z,26.6493,-81.8810,2.19,4.32,1111122 
SCCF RECON,ioos:station:SCCF:53:1,2009-06-06T09:00:00Z,26.6493,-81.8810,2.23,4.14,1111122 
SCCF RECON,ioos:station:SCCF:53:1,2009-06-06T10:00:00Z,26.6493,-81.8810,2.25,4.6,1111122 
SCCF RECON,ioos:station:SCCF:53:1,2009-06-06T11:00:00Z,26.6493,-81.8810,2.27,4.79,1111122 
SCCF RECON,ioos:station:SCCF:53:1,2009-06-06T12:00:00Z,26.6493,-81.8810,2.292,5.36,1111122 
SCCF RECON,ioos:station:SCCF:53:1,2009-06-06T13:00:00Z,26.6493,-81.8810,2.294,5.24,1111122 
SCCF RECON,ioos:station:SCCF:53:1,2009-06-06T14:00:00Z,26.6493,-81.8810,2.31,4.7,1111122 
SCCF RECON,ioos:station:SCCF:53:1,2009-06-06T15:00:00Z,26.6493,-81.8810,2.37,4.99,1111122 
SCCF RECON,ioos:station:SCCF:53:1,2009-06-06T16:00:00Z,26.6493,-81.8810,2.437,5.65,1111122 
SCCF RECON,ioos:station:SCCF:53:1,2009-06-06T17:00:00Z,26.6493,-81.8810,2.492,4.95,1111122 
SCCF RECON,ioos:station:SCCF:53:1,2009-06-06T18:00:00Z,26.6493,-81.8810,2.528,5.48,1111122 
SCCF RECON,ioos:station:SCCF:53:1,2009-06-06T19:00:00Z,26.6493,-81.8810,2.541,6.05,1111122 
SCCF RECON,ioos:station:SCCF:53:1,2009-06-06T20:00:00Z,26.6493,-81.8810,2.509,6.19,1111122 
SCCF RECON,ioos:station:SCCF:53:1,2009-06-06T21:00:00Z,26.6493,-81.8810,2.459,6.33,1111122 
SCCF RECON,ioos:station:SCCF:53:1,2009-06-06T22:00:00Z,26.6493,-81.8810,2.397,6.64,1111122 
SCCF RECON,ioos:station:SCCF:53:1,2009-06-06T23:00:00Z,26.6493,-81.8810,2.33,5.83,1111122 
SCCF RECON,ioos:station:SCCF:53:1,2009-06-07T00:00:00Z,26.6493,-81.8810,2.278,6.39,1111122 
SCCF RECON,ioos:station:SCCF:53:1,2009-06-07T01:00:00Z,26.6493,-81.8810,2.21,6.51,1111122 
SCCF RECON,ioos:station:SCCF:53:1,2009-06-07T02:00:00Z,26.6493,-81.8810,2.151,6.37,1111122 
SCCF RECON,ioos:station:SCCF:53:1,2009-06-07T03:00:00Z,26.6493,-81.8810,2.1,6.56,1111122 
SCCF RECON,ioos:station:SCCF:53:1,2009-06-07T04:00:00Z,26.6493,-81.8810,2.07,6.64,1111122 
SCCF RECON,ioos:station:SCCF:53:1,2009-06-07T05:00:00Z,26.6493,-81.8810,2.06,5.24,1111122 
SCCF RECON,ioos:station:SCCF:53:1,2009-06-07T06:00:00Z,26.6493,-81.8810,2.088,5.25,1111122 
SCCF RECON,ioos:station:SCCF:53:1,2009-06-07T07:00:00Z,26.6493,-81.8810,2.13,5.26,1111122 
SCCF RECON,ioos:station:SCCF:53:1,2009-06-07T08:00:00Z,26.6493,-81.8810,2.17,5.03,1111122 
SCCF RECON,ioos:station:SCCF:53:1,2009-06-07T09:00:00Z,26.6493,-81.8810,2.19,4.91,1111122 
SCCF RECON,ioos:station:SCCF:53:1,2009-06-07T10:00:00Z,26.6493,-81.8810,2.23,4.73,1111122 
SCCF RECON,ioos:station:SCCF:53:1,2009-06-07T11:00:00Z,26.6493,-81.8810,2.24,5.43,1111122 
SCCF RECON,ioos:station:SCCF:53:1,2009-06-07T12:00:00Z,26.6493,-81.8810,2.22,4.43,1111122 
SCCF RECON,ioos:station:SCCF:53:1,2009-06-07T13:00:00Z,26.6493,-81.8810,2.19,5.52,1111122 
SCCF RECON,ioos:station:SCCF:53:1,2009-06-07T14:00:00Z,26.6493,-81.8810,2.179,4.94,1111122 
SCCF RECON,ioos:station:SCCF:53:1,2009-06-07T15:00:00Z,26.6493,-81.8810,2.233,4.45,1111122 
SCCF RECON,ioos:station:SCCF:53:1,2009-06-07T16:00:00Z,26.6493,-81.8810,2.302,4.69,1111122 
SCCF RECON,ioos:station:SCCF:53:1,2009-06-07T17:00:00Z,26.6493,-81.8810,2.362,5.88,1111122 
SCCF RECON,ioos:station:SCCF:53:1,2009-06-07T18:00:00Z,26.6493,-81.8810,2.439,6.22,1111122 
SCCF RECON,ioos:station:SCCF:53:1,2009-06-07T19:00:00Z,26.6493,-81.8810,2.495,6.31,1111122 
SCCF RECON,ioos:station:SCCF:53:1,2009-06-07T20:00:00Z,26.6493,-81.8810,2.511,6.2,1111122 
SCCF RECON,ioos:station:SCCF:53:1,2009-06-07T21:00:00Z,26.6493,-81.8810,2.447,5.96,1111122 
SCCF RECON,ioos:station:SCCF:53:1,2009-06-07T22:00:00Z,26.6493,-81.8810,2.37,5.78,1111122 
SCCF RECON,ioos:station:SCCF:53:1,2009-06-07T23:00:00Z,26.6493,-81.8810,2.319,5.62,1111122 
SCCF RECON,ioos:station:SCCF:53:1,2009-06-08T00:00:00Z,26.6493,-81.8810,2.25,5.58,1111122 
SCCF RECON,ioos:station:SCCF:53:1,2009-06-08T01:00:00Z,26.6493,-81.8810,2.199,5.14,1111122 
SCCF RECON,ioos:station:SCCF:53:1,2009-06-08T02:00:00Z,26.6493,-81.8810,2.14,5.28,1111122 
SCCF RECON,ioos:station:SCCF:53:1,2009-06-08T03:00:00Z,26.6493,-81.8810,2.08,4.92,1111122 
SCCF RECON,ioos:station:SCCF:53:1,2009-06-08T04:00:00Z,26.6493,-81.8810,2.04,4.97,1111122 
SCCF RECON,ioos:station:SCCF:53:1,2009-06-08T05:00:00Z,26.6493,-81.8810,2.03,4.34,1111122 
SCCF RECON,ioos:station:SCCF:53:1,2009-06-08T06:00:00Z,26.6493,-81.8810,2.04,4.32,1111122 
SCCF RECON,ioos:station:SCCF:53:1,2009-06-08T07:00:00Z,26.6493,-81.8810,2.09,3.22,1111122 
SCCF RECON,ioos:station:SCCF:53:1,2009-06-08T08:00:00Z,26.6493,-81.8810,2.13,3.66,1111122 
SCCF RECON,ioos:station:SCCF:53:1,2009-06-08T09:00:00Z,26.6493,-81.8810,2.17,3.79,1111122 
SCCF RECON,ioos:station:SCCF:53:1,2009-06-08T10:00:00Z,26.6493,-81.8810,2.18,3.54,1111122 
SCCF RECON,ioos:station:SCCF:53:1,2009-06-08T11:00:00Z,26.6493,-81.8810,2.2,3.47,1111122 
SCCF RECON,ioos:station:SCCF:53:1,2009-06-08T12:00:00Z,26.6493,-81.8810,2.189,3.68,1111122 
SCCF RECON,ioos:station:SCCF:53:1,2009-06-08T13:00:00Z,26.6493,-81.8810,2.173,3.36,1111122 
SCCF RECON,ioos:station:SCCF:53:1,2009-06-08T14:00:00Z,26.6493,-81.8810,2.19,3.35,1111122 
SCCF RECON,ioos:station:SCCF:53:1,2009-06-08T15:00:00Z,26.6493,-81.8810,2.24,3.16,1111122 
SCCF RECON,ioos:station:SCCF:53:1,2009-06-08T16:00:00Z,26.6493,-81.8810,2.286,3.31,1111122 
SCCF RECON,ioos:station:SCCF:53:1,2009-06-08T17:00:00Z,26.6493,-81.8810,2.35,3.06,1111122 
SCCF RECON,ioos:station:SCCF:53:1,2009-06-08T18:00:00Z,26.6493,-81.8810,2.4,3.21,1111122 
SCCF RECON,ioos:station:SCCF:53:1,2009-06-08T19:00:00Z,26.6493,-81.8810,2.43,3.36,1111122 
SCCF RECON,ioos:station:SCCF:53:1,2009-06-08T20:00:00Z,26.6493,-81.8810,2.444,4.16,1111122 
SCCF RECON,ioos:station:SCCF:53:1,2009-06-08T21:00:00Z,26.6493,-81.8810,2.413,4.4,1111122 
SCCF RECON,ioos:station:SCCF:53:1,2009-06-08T22:00:00Z,26.6493,-81.8810,2.359,4.0,1111122 
SCCF RECON,ioos:station:SCCF:53:1,2009-06-08T23:00:00Z,26.6493,-81.8810,2.3,3.41,1111122 
SCCF RECON,ioos:station:SCCF:53:1,2009-06-09T00:00:00Z,26.6493,-81.8810,2.25,4.05,1111122 
SCCF RECON,ioos:station:SCCF:53:1,2009-06-09T01:00:00Z,26.6493,-81.8810,2.19,3.97,1111122 
SCCF RECON,ioos:station:SCCF:53:1,2009-06-09T02:00:00Z,26.6493,-81.8810,2.13,3.65,1111122 
SCCF RECON,ioos:station:SCCF:53:1,2009-06-09T03:00:00Z,26.6493,-81.8810,2.08,4.02,1111122 
SCCF RECON,ioos:station:SCCF:53:1,2009-06-09T04:00:00Z,26.6493,-81.8810,2.03,4.13,1111122 
SCCF RECON,ioos:station:SCCF:53:1,2009-06-09T05:00:00Z,26.6493,-81.8810,2.0,3.66,1111122 
SCCF RECON,ioos:station:SCCF:53:1,2009-06-09T06:00:00Z,26.6493,-81.8810,2.0,3.06,1111122 
SCCF RECON,ioos:station:SCCF:53:1,2009-06-09T07:00:00Z,26.6493,-81.8810,2.04,2.78,1111122 
SCCF RECON,ioos:station:SCCF:53:1,2009-06-09T08:00:00Z,26.6493,-81.8810,2.09,2.52,1111122 
SCCF RECON,ioos:station:SCCF:53:1,2009-06-09T09:00:00Z,26.6493,-81.8810,2.14,3.49,1111122 
SCCF RECON,ioos:station:SCCF:53:1,2009-06-09T10:00:00Z,26.6493,-81.8810,2.19,3.22,1111122 
SCCF RECON,ioos:station:SCCF:53:1,2009-06-09T11:00:00Z,26.6493,-81.8810,2.22,2.3,1111122 
SCCF RECON,ioos:station:SCCF:53:1,2009-06-09T12:00:00Z,26.6493,-81.8810,2.22,2.53,1111122 
SCCF RECON,ioos:station:SCCF:53:1,2009-06-09T13:00:00Z,26.6493,-81.8810,2.21,2.18,1111122 
SCCF RECON,ioos:station:SCCF:53:1,2009-06-09T14:00:00Z,26.6493,-81.8810,2.2,2.73,1111122 
SCCF RECON,ioos:station:SCCF:53:1,2009-06-09T15:00:00Z,26.6493,-81.8810,2.207,2.86,1111122 
SCCF RECON,ioos:station:SCCF:53:1,2009-06-09T16:00:00Z,26.6493,-81.8810,2.26,3.38,1111122 
SCCF RECON,ioos:station:SCCF:53:1,2009-06-09T17:00:00Z,26.6493,-81.8810,2.32,3.91,1111122 
SCCF RECON,ioos:station:SCCF:53:1,2009-06-09T18:00:00Z,26.6493,-81.8810,2.37,3.32,1111122 
SCCF RECON,ioos:station:SCCF:53:1,2009-06-09T19:00:00Z,26.6493,-81.8810,2.424,2.85,1111122 
SCCF RECON,ioos:station:SCCF:53:1,2009-06-09T20:00:00Z,26.6493,-81.8810,2.45,3.3,1111122 
SCCF RECON,ioos:station:SCCF:53:1,2009-06-09T21:00:00Z,26.6493,-81.8810,2.43,2.98,1111122 
SCCF RECON,ioos:station:SCCF:53:1,2009-06-09T22:00:00Z,26.6493,-81.8810,2.37,3.38,1111122 
SCCF RECON,ioos:station:SCCF:53:1,2009-06-09T23:00:00Z,26.6493,-81.8810,2.311,2.96,1111122 
SCCF RECON,ioos:station:SCCF:53:1,2009-06-10T00:00:00Z,26.6493,-81.8810,2.258,2.8,1111122 
SCCF RECON,ioos:station:SCCF:53:1,2009-06-10T01:00:00Z,26.6493,-81.8810,2.2,2.74,1111122 
SCCF RECON,ioos:station:SCCF:53:1,2009-06-10T02:00:00Z,26.6493,-81.8810,2.15,2.66,1111122 
SCCF RECON,ioos:station:SCCF:53:1,2009-06-10T03:00:00Z,26.6493,-81.8810,2.1,2.59,1111122 
SCCF RECON,ioos:station:SCCF:53:1,2009-06-10T04:00:00Z,26.6493,-81.8810,2.05,2.43,1111122 
SCCF RECON,ioos:station:SCCF:53:1,2009-06-10T05:00:00Z,26.6493,-81.8810,2.0,2.05,1111122 
SCCF RECON,ioos:station:SCCF:53:1,2009-06-10T06:00:00Z,26.6493,-81.8810,1.97,2.58,1111122 
SCCF RECON,ioos:station:SCCF:53:1,2009-06-10T07:00:00Z,26.6493,-81.8810,1.99,2.33,1111122 
SCCF RECON,ioos:station:SCCF:53:1,2009-06-10T08:00:00Z,26.6493,-81.8810,2.04,2.77,1111122 
SCCF RECON,ioos:station:SCCF:53:1,2009-06-10T09:00:00Z,26.6493,-81.8810,2.09,3.07,1111122 
SCCF RECON,ioos:station:SCCF:53:1,2009-06-10T10:00:00Z,26.6493,-81.8810,2.13,3.39,1111122 
SCCF RECON,ioos:station:SCCF:53:1,2009-06-10T11:00:00Z,26.6493,-81.8810,2.17,3.26,1111122 
SCCF RECON,ioos:station:SCCF:53:1,2009-06-10T12:00:00Z,26.6493,-81.8810,2.18,3.03,1111122 
SCCF RECON,ioos:station:SCCF:53:1,2009-06-10T13:00:00Z,26.6493,-81.8810,2.16,2.85,1111122 
SCCF RECON,ioos:station:SCCF:53:1,2009-06-10T14:00:00Z,26.6493,-81.8810,2.14,2.72,1111122 
SCCF RECON,ioos:station:SCCF:53:1,2009-06-10T15:00:00Z,26.6493,-81.8810,2.12,2.7,1111122 
SCCF RECON,ioos:station:SCCF:53:1,2009-06-10T16:00:00Z,26.6493,-81.8810,2.14,2.72,1111122 
SCCF RECON,ioos:station:SCCF:53:1,2009-06-10T17:00:00Z,26.6493,-81.8810,2.2,3.42,1111122 
SCCF RECON,ioos:station:SCCF:53:1,2009-06-10T18:00:00Z,26.6493,-81.8810,2.266,4.32,1111122 
SCCF RECON,ioos:station:SCCF:53:1,2009-06-10T19:00:00Z,26.6493,-81.8810,2.329,4.27,1111122 
SCCF RECON,ioos:station:SCCF:53:1,2009-06-10T20:00:00Z,26.6493,-81.8810,2.37,3.76,1111122 
SCCF RECON,ioos:station:SCCF:53:1,2009-06-10T21:00:00Z,26.6493,-81.8810,2.396,4.12,1111122 
SCCF RECON,ioos:station:SCCF:53:1,2009-06-10T22:00:00Z,26.6493,-81.8810,2.392,6.14,1111122 
SCCF RECON,ioos:station:SCCF:53:1,2009-06-10T23:00:00Z,26.6493,-81.8810,2.335,6.15,1111122 
SCCF RECON,ioos:station:SCCF:53:1,2009-06-11T00:00:00Z,26.6493,-81.8810,2.289,5.43,1111122 
SCCF RECON,ioos:station:SCCF:53:1,2009-06-11T01:00:00Z,26.6493,-81.8810,2.221,5.08,1111122 
SCCF RECON,ioos:station:SCCF:53:1,2009-06-11T02:00:00Z,26.6493,-81.8810,2.18,3.56,1111122 
SCCF RECON,ioos:station:SCCF:53:1,2009-06-11T03:00:00Z,26.6493,-81.8810,2.12,3.69,1111122 
SCCF RECON,ioos:station:SCCF:53:1,2009-06-11T04:00:00Z,26.6493,-81.8810,2.07,3.68,1111122 
SCCF RECON,ioos:station:SCCF:53:1,2009-06-11T05:00:00Z,26.6493,-81.8810,2.01,3.16,1111122 
SCCF RECON,ioos:station:SCCF:53:1,2009-06-11T06:00:00Z,26.6493,-81.8810,1.97,3.02,1111122 
SCCF RECON,ioos:station:SCCF:53:1,2009-06-11T07:00:00Z,26.6493,-81.8810,1.98,3.18,1111122 
SCCF RECON,ioos:station:SCCF:53:1,2009-06-11T08:00:00Z,26.6493,-81.8810,2.029,2.36,1111122 
SCCF RECON,ioos:station:SCCF:53:1,2009-06-11T09:00:00Z,26.6493,-81.8810,2.08,2.91,1111122 
SCCF RECON,ioos:station:SCCF:53:1,2009-06-11T10:00:00Z,26.6493,-81.8810,2.13,2.13,1111122 
SCCF RECON,ioos:station:SCCF:53:1,2009-06-11T11:00:00Z,26.6493,-81.8810,2.18,1.99,1111122 
SCCF RECON,ioos:station:SCCF:53:1,2009-06-11T12:00:00Z,26.6493,-81.8810,2.21,1.73,1111122 
SCCF RECON,ioos:station:SCCF:53:1,2009-06-11T13:00:00Z,26.6493,-81.8810,2.218,1.54,1111122 
SCCF RECON,ioos:station:SCCF:53:1,2009-06-11T14:00:00Z,26.6493,-81.8810,2.2,1.34,1111122 
SCCF RECON,ioos:station:SCCF:53:1,2009-06-11T15:00:00Z,26.6493,-81.8810,2.18,1.41,1111122 
SCCF RECON,ioos:station:SCCF:53:1,2009-06-11T16:00:00Z,26.6493,-81.8810,2.17,1.32,1111122 
SCCF RECON,ioos:station:SCCF:53:1,2009-06-11T17:00:00Z,26.6493,-81.8810,2.19,1.43,1111122 
SCCF RECON,ioos:station:SCCF:53:1,2009-06-11T18:00:00Z,26.6493,-81.8810,2.244,3.06,1111122 
SCCF RECON,ioos:station:SCCF:53:1,2009-06-11T19:00:00Z,26.6493,-81.8810,2.31,5.21,1111122 
SCCF RECON,ioos:station:SCCF:53:1,2009-06-11T20:00:00Z,26.6493,-81.8810,2.36,3.64,1111122 
SCCF RECON,ioos:station:SCCF:53:1,2009-06-11T21:00:00Z,26.6493,-81.8810,2.4,3.26,1111122 
SCCF RECON,ioos:station:SCCF:53:1,2009-06-11T22:00:00Z,26.6493,-81.8810,2.41,2.4,1111122 